Overview Statistics Trail Chart Weather Telemetry Raw packets
 

This is the latest recevied weather packets stored in our database for station/object K8WEH. If no packets are shown the sender has not sent any weather packets the latest 10 day(s).

<< 7 8 9 10 11 12 13 >>
Time Temp. Humidity Pressure Rain* Wind** Luminosity Snow
1788567649 26.67° C 42% 1013.9 hPa 0 mm - - -
1788567353 26.67° C 41% 1013.9 hPa 0 mm - - -
1788567048 26.67° C 41% 1013.8 hPa 0 mm - - -
1788566746 27.22° C 43% 1014 hPa 0 mm - - -
1788566457 27.22° C 46% 1013.9 hPa 0 mm - - -
1788566142 27.22° C 46% 1013.8 hPa 0 mm - - -
1788565840 27.22° C 47% 1013.7 hPa 0 mm - - -
1788565540 27.22° C 49% 1013.8 hPa 0 mm - - -
1788565237 27.78° C 50% 1013.6 hPa 0 mm - - -
1788564936 27.78° C 52% 1013.6 hPa 0 mm - - -
1788564634 27.78° C 53% 1013.4 hPa 0 mm - - -
1788564333 27.78° C 55% 1013.2 hPa 0 mm - - -
1788564032 28.33° C 57% 1012.8 hPa 0 mm - - -
1788563730 28.33° C 57% 1012.5 hPa 0 mm - - -
1788563428 28.33° C 58% 1012.8 hPa 0 mm - - -
1788563127 28.33° C 59% 1012.7 hPa 0 mm - - -
1788562847 28.33° C 60% 1012.4 hPa 0 mm - - -
1788562525 28.33° C 61% 1012.7 hPa 0 mm - - -
1788562223 28.33° C 61% 1013 hPa 0 mm - - -
1788561921 28.33° C 60% 1013.3 hPa 0 mm - - -
1788561619 28.33° C 66% 1013.5 hPa 0 mm - - -
1788561317 28.33° C 67% 1013.5 hPa 0 mm - - -
1788561017 28.33° C 69% 1013.8 hPa 0 mm - - -
1788560714 28.89° C 70% 1013.8 hPa 0 mm - - -
1788560414 28.89° C 69% 1014.1 hPa 0 mm - - -

* Rain latest hour (hover to see other rain measurements)
** Current wind speed in m/s (hover to see current wind gust speed)